Total_Precipitation_Accumulation
0.00 0.00 0.00 0.00 0.00 0.00 0.00 0.01 0.02 0.03 0.11 0.17 0.22 0.02 0.02 0.00 0.01 0.12 0.05 0.07 0.07 0.03 0.04 0.06 0.02 0.00 0.00 0.00 0.02 0.02 0.04 0.05 0.06 0.01 0.01 0.02 0.03 0.05 0.10 0.18 0.18 0.04 0.02
0.00 0.00 0.00 0.00 0.00 0.00 0.00 0.00 0.00 0.02 0.02 0.04 0.04 0.06 0.09 0.02 0.04 0.15 0.07 0.02 0.09 0.10 0.08 0.07 0.02 0.01 0.02 0.02 0.01 0.03 0.01 0.02 0.06 0.05 0.02 0.03 0.06 0.11 0.21 0.24 0.16 0.05 0.00
0.00 0.00 0.00 0.00 0.00 0.00 0.00 0.00 0.00 0.02 0.02 0.01 0.02 0.06 0.03 0.01 0.02 0.04 0.12 0.05 0.04 0.03 0.04 0.12 0.12 0.11 0.06 0.05 0.05 0.06 0.07 0.04 0.07 0.11 0.06 0.09 0.07 0.13 0.20 0.28 0.21 0.10 0.04
0.14 0.02 0.01 0.00 0.00 0.00 0.00 0.00 0.00 0.00 0.01 0.01 0.02 0.03 0.01 0.00 0.01 0.01 0.05 0.01 0.01 0.02 0.07 0.16 0.08 0.18 0.10 0.07 0.19 0.19 0.16 0.13 0.19 0.20 0.20 0.10 0.12 0.20 0.15 0.18 0.29 0.23 0.15
0.20 0.22 0.35 0.06 0.00 0.00 0.00 0.01 0.00 0.00 0.00 0.00 0.00 0.01 0.01 0.00 0.00 0.00 0.00 0.01 0.05 0.05 0.11 0.09 0.08 0.08 0.08 0.05 0.10 0.09 0.26 0.21 0.27 0.23 0.24 0.22 0.23 0.29 0.21 0.16 0.15 0.19 0.26
0.09 0.05 0.22 0.36 0.36 0.04 0.06 0.08 0.07 0.05 0.02 0.00 0.00 0.00 0.01 0.00 0.00 0.00 0.00 0.00 0.01 0.09 0.11 0.09 0.21 0.16 0.10 0.02 0.00 0.01 0.01 0.04 0.07 0.13 0.13 0.13 0.15 0.08 0.07 0.08 0.14 0.15 0.32
0.15 0.10 0.05 0.16 0.17 0.08 0.08 0.07 0.04 0.04 0.05 0.03 0.00 0.00 0.00 0.00 0.00 0.00 0.00 0.00 0.00 0.03 0.08 0.07 0.14 0.16 0.14 0.07 0.05 0.00 0.00 0.00 0.00 0.01 0.06 0.04 0.03 0.00 0.00 0.04 0.14 0.03 0.02
0.02 0.18 0.19 0.22 0.18 0.15 0.12 0.08 0.10 0.12 0.10 0.10 0.07 0.05 0.05 0.04 0.03 0.02 0.00 0.01 0.01 0.05 0.10 0.07 0.07 0.08 0.06 0.06 0.04 0.01 0.00 0.00 0.00 0.00 0.00 0.00 0.00 0.00 0.00 0.00 0.00 0.00 0.00
0.01 0.05 0.11 0.20 0.24 0.24 0.29 0.26 0.26 0.23 0.22 0.14 0.16 0.15 0.11 0.10 0.14 0.07 0.02 0.00 0.02 0.05 0.04 0.02 0.02 0.02 0.01 0.01 0.04 0.02 0.00 0.00 0.00 0.00 0.00 0.00 0.00 0.00 0.00 0.00 0.02 0.03 0.00
0.04 0.04 0.04 0.06 0.10 0.15 0.26 0.37 0.37 0.34 0.29 0.27 0.24 0.22 0.22 0.22 0.25 0.18 0.08 0.02 0.04 0.01 0.00 0.01 0.00 0.00 0.00 0.00 0.03 0.00 0.00 0.00 0.00 0.00 0.00 0.00 0.00 0.00 0.00 0.00 0.00 0.02 0.01
0.05 0.02 0.00 0.02 0.03 0.03 0.04 0.14 0.28 0.37 0.28 0.22 0.25 0.51 0.34 0.33 0.42 0.27 0.13 0.07 0.08 0.02 0.01 0.00 0.00 0.00 0.00 0.00 0.00 0.00 0.00 0.00 0.00 0.00 0.00 0.00 0.00 0.00 0.00 0.00 0.00 0.00 0.00
0.07 0.03 0.01 0.01 0.02 0.02 0.03 0.03 0.05 0.11 0.17 0.17 0.14 0.23 0.25 0.22 0.26 0.24 0.14 0.08 0.03 0.01 0.00 0.00 0.00 0.00 0.00 0.00 0.00 0.00 0.00 0.00 0.00 0.00 0.00 0.00 0.00 0.00 0.00 0.00 0.00 0.00 0.00
0.14 0.04 0.00 0.01 0.01 0.01 0.00 0.01 0.02 0.03 0.04 0.02 0.04 0.04 0.05 0.07 0.10 0.16 0.13 0.11 0.06 0.03 0.03 0.02 0.02 0.01 0.01 0.00 0.00 0.00 0.00 0.00 0.00 0.00 0.00 0.00 0.00 0.00 0.00 0.00 0.00 0.00 0.00
0.12 0.06 0.01 0.00 0.01 0.01 0.00 0.00 0.01 0.06 0.12 0.17 0.13 0.05 0.04 0.05 0.09 0.15 0.24 0.29 0.29 0.20 0.16 0.14 0.11 0.06 0.04 0.02 0.01 0.00 0.00 0.00 0.00 0.00 0.00 0.00 0.00 0.00 0.00 0.00 0.00 0.00 0.00
0.01 0.04 0.04 0.00 0.00 0.00 0.00 0.00 0.01 0.03 0.11 0.23 0.36 0.47 0.52 0.48 0.49 0.52 0.42 0.27 0.29 0.29 0.21 0.09 0.09 0.07 0.07 0.06 0.04 0.02 0.00 0.00 0.00 0.00 0.00 0.00 0.00 0.00 0.00 0.00 0.00 0.00 0.00
0.01 0.04 0.09 0.01 0.02 0.02 0.02 0.00 0.00 0.00 0.01 0.05 0.12 0.17 0.29 0.40 0.58 0.58 0.51 0.44 0.30 0.22 0.15 0.12 0.11 0.09 0.08 0.05 0.02 0.00 0.00 0.00 0.00 0.00 0.00 0.00 0.00 0.00 0.00 0.00 0.00 0.00 0.00
0.03 0.06 0.12 0.05 0.03 0.07 0.10 0.04 0.02 0.02 0.02 0.01 0.02 0.02 0.05 0.13 0.17 0.13 0.08 0.04 0.02 0.02 0.02 0.02 0.01 0.00 0.00 0.00 0.00 0.00 0.00 0.00 0.00 0.00 0.00 0.00 0.00 0.00 0.00 0.00 0.00 0.00 0.00
0.00 0.05 0.14 0.13 0.04 0.02 0.04 0.07 0.04 0.06 0.09 0.06 0.02 0.01 0.02 0.07 0.07 0.05 0.09 0.08 0.02 0.02 0.01 0.00 0.00 0.00 0.00 0.00 0.00 0.00 0.00 0.00 0.00 0.00 0.00 0.00 0.00 0.00 0.00 0.00 0.00 0.00 0.00
0.00 0.00 0.04 0.07 0.08 0.06 0.05 0.05 0.06 0.06 0.06 0.08 0.07 0.05 0.04 0.04 0.06 0.07 0.03 0.01 0.00 0.00 0.00 0.00 0.00 0.00 0.00 0.00 0.00 0.00 0.00 0.00 0.00 0.00 0.00 0.00 0.00 0.00 0.00 0.00 0.00 0.00 0.00
0.00 0.00 0.04 0.12 0.13 0.16 0.17 0.10 0.05 0.05 0.04 0.05 0.03 0.02 0.02 0.03 0.03 0.13 0.18 0.04 0.00 0.00 0.00 0.00 0.00 0.00 0.00 0.00 0.00 0.00 0.00 0.00 0.00 0.00 0.00 0.00 0.00 0.00 0.00 0.00 0.00 0.00 0.00
0.01 0.00 0.01 0.08 0.10 0.11 0.16 0.17 0.11 0.05 0.02 0.02 0.02 0.02 0.02 0.02 0.01 0.00 0.00 0.00 0.00 0.00 0.00 0.00 0.00 0.00 0.00 0.00 0.00 0.00 0.00 0.00 0.00 0.00 0.00 0.00 0.00 0.00 0.00 0.00 0.00 0.00 0.00
0.00 0.01 0.01 0.02 0.02 0.02 0.06 0.08 0.07 0.03 0.01 0.01 0.01 0.01 0.01 0.01 0.00 0.00 0.00 0.00 0.00 0.00 0.00 0.00 0.00 0.00 0.00 0.00 0.00 0.00 0.00 0.00 0.00 0.00 0.00 0.00 0.00 0.00 0.00 0.00 0.00 0.00 0.00
0.00 0.00 0.00 0.00 0.00 0.00 0.00 0.00 0.00 0.00 0.00 0.00 0.00 0.00 0.00 0.00 0.00 0.00 0.00 0.00 0.00 0.00 0.00 0.00 0.00 0.00 0.00 0.00 0.00 0.00 0.00 0.00 0.00 0.00 0.00 0.00 0.00 0.00 0.00 0.00 0.00 0.00 0.00
0.00 0.00 0.00 0.00 0.00 0.00 0.00 0.00 0.00 0.00 0.00 0.00 0.00 0.00 0.00 0.00 0.00 0.00 0.00 0.00 0.00 0.00 0.00 0.00 0.00 0.00 0.00 0.00 0.00 0.00 0.00 0.00 0.00 0.00 0.00 0.00 0.00 0.00 0.00 0.00 0.00 0.00 0.00
0.00 0.00 0.00 0.00 0.00 0.00 0.00 0.00 0.00 0.00 0.00 0.00 0.00 0.00 0.00 0.00 0.00 0.00 0.00 0.00 0.00 0.00 0.00 0.00 0.00 0.00 0.00 0.00 0.00 0.00 0.00 0.00 0.00 0.00 0.00 0.00 0.00 0.00 0.00 0.00 0.00 0.00 0.00
0.00 0.00 0.00 0.00 0.00 0.00 0.00 0.00 0.00 0.00 0.00 0.00 0.00 0.00 0.00 0.00 0.00 0.00 0.00 0.00 0.00 0.00 0.00 0.00 0.00 0.00 0.00 0.00 0.00 0.00 0.00 0.00 0.00 0.00 0.00 0.00 0.00 0.00 0.00 0.00 0.00 0.00 0.00